KORSAT 7

导读 | 星芒AI

KORSAT 7 是韩国开发的一颗小型卫星,主要用于教育和研究目的。该卫星由韩国科学技术院(KIST)与韩国航空宇宙研究院(KARI)合作研制,于2023年成功发射。KORSAT 7 重约 10 千克,属于立方星(CubeSat)类别,搭载了多种科学载荷,用于测试卫星通信、遥感和轨道控制技术。该卫星项目旨在培养航天领域人才,并推动韩国在小型卫星技术方面的创新与发展。

基本信息
目录编号:
58463
目录名称:
KORSAT 7
国际标识:
2023-185B
轨道中心:
EARTH
卫星名称:
KORSAT 7
卫星全名:
--
卫星状态:
在轨 (已飞行743 天)
发射日期:
2023-12-01 UTC
国别 :
韩国 (KR)
星等 :
--
轨道信息
数据来源 国际轨道数据 AOE轨道数据
星历时间 2025-12-13T09:12:03+0800
8小时前
查看轨道信息
2025-12-13T11:00:00+0800
6小时前
查看轨道信息
半长轴 6942.249km 6942.271km
偏心率 0.0022 0.0022193
轨道倾角 97.632° 97.633°
近地点辐角 240.585° 240.247°
升交点赤经 49.756° 49.829°
平近点角 119.317° 164.452°
近地点 548.841km 548.729km
远地点 579.387km 579.543km
周期 95.942分钟 95.943分钟
每日圈数 15.009027 15.008955
详细信息
使用方式:
暂无
2D轨道图
3D轨道图
轨道高度分析图
轨道倾角分析图
轨道综合分析图
查看轨道综合分析图